Flag for Spain Weather past 2 weeks in Pamplona, Spain

Now
48 °F

Passing clouds.


Feels Like: 45 °F
Forecast: 46 / 61 °F
Wind: 8 mph from Northwest

Location: Pamplona / Noain


UV Index: 3 (Moderate)

Visibility: N/A


Pressure: 30.04 "Hg

Humidity: 82%

Dew point: 43 °F

Location of PamplonaLocation

Historic Weather in Pamplona

°F

Pamplona temperature yesterday

Maximum temperature yesterday: 59 °F (at 12:00 PM)
Minimum temperature yesterday: 48 °F (at 7:00 AM)
Average temperature yesterday: 55 °F

Past Weeks' High & Low Weather Summary

 TemperatureHumidityPressure
High81 °F (Apr 16, 5:30 PM)100% (Apr 10, 6:30 AM)30.21 "Hg (Apr 10, 6:30 AM)
Low37 °F (Apr 21, 7:30 AM)12% (Apr 18, 2:00 PM)29.59 "Hg (Apr 20, 6:30 AM)
Average59 °F69%29.97 "Hg
* Reported Apr 10 6:00 AM — Apr 25 5:30 AM, Pamplona, Weather by CustomWeather, © 2014

Note: Actual official high and low records may vary slightly from our data, if they occured in-between our weather recording intervals... More about our weather records

Advertising

Historic Weather Conditions — Data for Previous 24 hours

 ConditionsComfort  
Time TempWeatherWind HumidityBarometerVisibility
5:30 AM
Apr 25
48 °FPassing clouds.5 mph82%30.04 "HgN/A
12:00 AM50 °FPassing clouds.9 mph82%30.01 "HgN/A
11:30 PM
Apr 24
50 °FPassing clouds.14 mph88%30.01 "HgN/A
11:00 PM50 °FPassing clouds.6 mph88%30.01 "HgN/A
10:30 PM50 °FPartly cloudy.13 mph88%30.01 "HgN/A
10:00 PM54 °FLight rain. Passing clouds.13 mph77%29.98 "HgN/A
9:30 PM54 °FThunderstorms. Partly sunny.9 mph82%29.92 "Hg6 mi
9:00 PM57 °FScattered clouds.2 mph77%29.92 "HgN/A
8:30 PM57 °FPassing clouds.3 mph82%29.89 "HgN/A
8:00 PM59 °FScattered clouds.3 mph72%29.92 "HgN/A
7:30 PM59 °FScattered clouds.7 mph77%29.92 "HgN/A
7:00 PM59 °FScattered clouds.2 mph77%29.92 "HgN/A
6:30 PM57 °FScattered clouds.5 mph82%29.92 "HgN/A
6:00 PM55 °FScattered clouds.5 mph82%29.92 "HgN/A
5:30 PM55 °FLight rain. Scattered clouds.2 mph82%29.92 "HgN/A
5:00 PM57 °FRain. Partly sunny.8 mph88%29.95 "Hg3 mi
4:30 PM57 °FLight rain. Scattered clouds.1 mph88%29.95 "HgN/A
4:00 PM57 °FLight rain. Scattered clouds.2 mph94%29.95 "HgN/A
3:30 PM57 °FLight rain. Scattered clouds.6 mph88%29.95 "HgN/A
3:00 PM57 °FLight rain. Scattered clouds.7 mph94%29.95 "HgN/A
2:30 PM57 °FLight rain. Scattered clouds.9 mph94%29.98 "Hg6 mi
2:00 PM57 °FRain. Scattered clouds.8 mph94%29.98 "Hg6 mi
1:30 PM57 °FRain. Scattered clouds.1 mph94%30.01 "Hg5 mi
1:00 PM59 °FRain. Scattered clouds.2 mph82%30.01 "Hg5 mi
12:30 PM59 °FPartly sunny.2 mph82%29.98 "HgN/A
12:00 PM59 °FScattered clouds.2 mph82%30.01 "HgN/A
11:30 AM57 °FScattered clouds.3 mph88%30.01 "HgN/A
11:00 AM55 °FScattered clouds.3 mph94%30.04 "HgN/A
10:30 AM55 °FScattered clouds.2 mph88%30.04 "HgN/A
10:00 AM54 °FLight rain. Scattered clouds.2 mph100%30.04 "HgN/A
9:30 AM52 °FLight rain. Scattered clouds.2 mph100%30.04 "Hg6 mi
9:00 AM50 °FScattered clouds.No wind100%30.04 "HgN/A
8:30 AM50 °FScattered clouds.No wind100%30.04 "HgN/A
8:00 AM50 °FPassing clouds.No wind100%30.07 "HgN/A
7:30 AM48 °FPassing clouds.1 mph100%30.07 "Hg6 mi
7:00 AM48 °FLight rain. Passing clouds.No wind100%30.07 "Hg6 mi
6:30 AM50 °FPassing clouds.1 mph100%30.07 "HgN/A
6:00 AM50 °FLight rain. Passing clouds.3 mph100%30.07 "HgN/A
Weather by CustomWeather, © 2014

See weather overview